Time,TemperatureF,DewpointF,PressureIn,WindDirection,WindDirectionDegrees,WindSpeedMPH,WindSpeedGustMPH,Humidity,HourlyPrecipIn,Conditions,Clouds,dailyrainin,SoftwareType,DateUTC
2013-04-26 00:00:00,27.0,20.0,-100.00,North,-999,-999.0,-999.0,77,-99.99,,,0.00,,2013-04-26 06:00:00,
2013-04-26 00:52:00,27.0,20.0,-100.00,North,-999,-999.0,-999.0,77,-99.99,,,0.00,,2013-04-26 06:52:00,
2013-04-26 01:00:00,26.0,20.0,-100.00,North,-999,-999.0,-999.0,77,-99.99,,,0.00,,2013-04-26 07:00:00,
2013-04-26 01:52:00,26.0,20.0,-100.00,North,-999,-999.0,-999.0,77,-99.99,,,0.00,,2013-04-26 07:52:00,
2013-04-26 02:00:00,24.0,18.0,-100.00,North,-999,-999.0,-999.0,77,-99.99,,,0.00,,2013-04-26 08:00:00,
2013-04-26 03:00:00,25.0,18.0,-100.00,North,-999,-999.0,-999.0,77,-99.99,,,0.00,,2013-04-26 09:00:00,
2013-04-26 04:00:00,24.0,18.0,-100.00,North,-999,-999.0,-999.0,77,-99.99,,,0.00,,2013-04-26 10:00:00,
2013-04-26 04:52:00,24.0,18.0,-100.00,North,-999,-999.0,-999.0,77,-99.99,,,0.00,,2013-04-26 10:52:00,
2013-04-26 05:00:00,26.0,20.0,-100.00,North,-999,-999.0,-999.0,77,-99.99,,,0.00,,2013-04-26 11:00:00,
2013-04-26 05:52:00,26.0,20.0,-100.00,North,-999,-999.0,-999.0,77,-99.99,,,0.00,,2013-04-26 11:52:00,
2013-04-26 06:00:00,25.0,19.0,-100.00,North,-999,-999.0,-999.0,77,-99.99,,,0.00,,2013-04-26 12:00:00,
2013-04-26 07:00:00,26.0,20.0,-100.00,North,-999,-999.0,-999.0,77,-99.99,,,0.00,,2013-04-26 13:00:00,
2013-04-26 07:52:00,26.0,20.0,-100.00,North,-999,-999.0,-999.0,77,-99.99,,,0.00,,2013-04-26 13:52:00,
2013-04-26 08:00:00,31.0,25.0,-100.00,North,-999,-999.0,-999.0,77,-99.99,,,-99.99,,2013-04-26 14:00:00,
2013-04-26 09:00:00,42.0,36.0,-100.00,North,-999,-999.0,-999.0,77,-99.99,,,0.00,,2013-04-26 15:00:00,
2013-04-26 10:00:00,46.0,39.0,-100.00,North,-999,-999.0,-999.0,76,-99.99,,,0.00,,2013-04-26 16:00:00,
2013-04-26 11:00:00,48.0,41.0,-100.00,North,-999,-999.0,-999.0,76,-99.99,,,0.00,,2013-04-26 17:00:00,
2013-04-26 11:52:00,48.0,41.0,-100.00,North,-999,-999.0,-999.0,76,-99.99,,,0.00,,2013-04-26 17:52:00,
2013-04-26 12:00:00,52.0,44.0,-100.00,North,-999,-999.0,-999.0,76,-99.99,,,0.00,,2013-04-26 18:00:00,
2013-04-26 12:52:00,52.0,44.0,-100.00,North,-999,-999.0,-999.0,76,-99.99,,,0.00,,2013-04-26 18:52:00,
2013-04-26 13:00:00,46.0,39.0,-100.00,North,-999,-999.0,-999.0,76,-99.99,,,0.00,,2013-04-26 19:00:00,
2013-04-26 14:00:00,50.0,43.0,-100.00,North,-999,-999.0,-999.0,76,-99.99,,,0.00,,2013-04-26 20:00:00,
2013-04-26 14:52:00,50.0,43.0,-100.00,North,-999,-999.0,-999.0,76,-99.99,,,0.00,,2013-04-26 20:52:00,
2013-04-26 15:00:00,54.0,46.0,-100.00,North,-999,-999.0,-999.0,76,-99.99,,,0.00,,2013-04-26 21:00:00,
2013-04-26 15:42:00,54.0,46.0,-100.00,North,-999,-999.0,-999.0,76,-99.99,,,0.00,,2013-04-26 21:42:00,
2013-04-26 15:53:00,54.0,46.0,-100.00,North,-999,-999.0,-999.0,76,-99.99,,,0.00,,2013-04-26 21:53:00,
2013-04-26 16:00:00,49.0,42.0,-100.00,North,-999,-999.0,-999.0,76,-99.99,,,0.00,,2013-04-26 22:00:00,
2013-04-26 17:00:00,47.0,40.0,-100.00,North,-999,-999.0,-999.0,76,-99.99,,,0.00,,2013-04-26 23:00:00,
2013-04-26 17:42:00,47.0,40.0,-100.00,North,-999,-999.0,-999.0,76,-99.99,,,0.00,,2013-04-26 23:42:00,
2013-04-26 17:52:00,47.0,40.0,-100.00,North,-999,-999.0,-999.0,76,-99.99,,,0.00,,2013-04-26 23:52:00,
2013-04-26 18:00:00,45.0,38.0,-100.00,North,-999,-999.0,-999.0,76,-99.99,,,0.00,,2013-04-27 00:00:00,
2013-04-26 18:42:00,45.0,38.0,-100.00,North,-999,-999.0,-999.0,76,-99.99,,,0.00,,2013-04-27 00:42:00,
2013-04-26 18:52:00,45.0,38.0,-100.00,North,-999,-999.0,-999.0,76,-99.99,,,0.00,,2013-04-27 00:52:00,
2013-04-26 19:00:00,42.0,35.0,-100.00,North,-999,-999.0,-999.0,76,-99.99,,,0.00,,2013-04-27 01:00:00,
2013-04-26 19:42:00,42.0,35.0,-100.00,North,-999,-999.0,-999.0,76,-99.99,,,0.00,,2013-04-27 01:42:00,
2013-04-26 19:52:00,42.0,35.0,-100.00,North,-999,-999.0,-999.0,76,-99.99,,,0.00,,2013-04-27 01:52:00,
2013-04-26 20:00:00,37.0,30.0,-100.00,North,-999,-999.0,-999.0,77,-99.99,,,-99.99,,2013-04-27 02:00:00,
2013-04-26 20:42:00,37.0,30.0,-100.00,North,-999,-999.0,-999.0,77,-99.99,,,-99.99,,2013-04-27 02:42:00,
2013-04-26 20:52:00,37.0,30.0,-100.00,North,-999,-999.0,-999.0,77,-99.99,,,-99.99,,2013-04-27 02:52:00,
2013-04-26 21:00:00,33.0,26.0,-100.00,North,-999,-999.0,-999.0,77,-99.99,,,-99.99,,2013-04-27 03:00:00,
2013-04-26 21:43:00,33.0,26.0,-100.00,North,-999,-999.0,-999.0,77,-99.99,,,-99.99,,2013-04-27 03:43:00,
2013-04-26 21:53:00,33.0,26.0,-100.00,North,-999,-999.0,-999.0,77,-99.99,,,-99.99,,2013-04-27 03:53:00,
2013-04-26 22:00:00,31.0,25.0,-100.00,North,-999,-999.0,-999.0,77,-99.99,,,-99.99,,2013-04-27 04:00:00,
2013-04-26 23:00:00,30.0,24.0,-100.00,North,-999,-999.0,-999.0,77,-99.99,,,-99.99,,2013-04-27 05:00:00,
2013-04-26 23:42:00,30.0,-99.9,-100.00,North,-999,-999.0,-999.0,-999,-99.99,,,-99.99,,2013-04-27 05:42:00,
2013-04-26 23:52:00,30.0,24.0,-100.00,North,-999,-999.0,-999.0,77,-99.99,,,-99.99,,2013-04-27 05:52:00,